Vidsel, Sweden

2:04 AM CET on February 28, 2017 (GMT +0100)
Vidsel

Weather History for ESPE - January, 2014

Change the Weather History Date:

Saturday, January 18, 2014

  Actual Average Record
Temperature  
Mean Temperature -18 °F -  
Max Temperature -8 °F - - ()
Min Temperature -27 °F - - ()
Degree Days  
Heating Degree Days 82    
Moisture  
Dew Point -15 °F    
Average Humidity 77    
Maximum Humidity 85    
Minimum Humidity 55    
Precipitation  
Precipitation 0.02 in - - ()
Sea Level Pressure  
Sea Level Pressure 30.50 in    
Wind  
Wind Speed 0 mph ()    
Max Wind Speed 2 mph    
Max Gust Speed -    
Visibility 5.6 miles    
Events Snow    
T = Trace of Precipitation, MM = Missing Value Source: Averaged Metar Reports

Daily Weather History Graph

Daily Weather History Graph

Search for Another Location

Airport or City:

Trip Planner

Search our weather history database for the weather conditions in past years. The results will help you decide how hot, cold, wet, or windy it might be!

Date:

Astronomy

Jan. 18, 2014 Rise Set
Actual Time 9:21 AM CET 2:18 PM CET
Civil Twilight 8:06 AM CET 3:33 PM CET
Nautical Twilight 6:58 AM CET 4:42 PM CET
Astronomical Twilight 5:56 AM CET 5:43 PM CET
Moon 6:16 PM CET (1/18) 8:47 AM CET (1/18)
Length of Visible Light 7h 26m
Length of Day
4h 57m
Waning Gibbous, 95% of the Moon is Illuminated
Jan 18
Waning Gibbous
Jan 24
Last Quarter
Jan 30
New
Feb 6
First Quarter
Feb 15
Full

Hourly Weather History & Observations

Time (CET) Temp. Dew Point Humidity Pressure Visibility Wind Dir Wind Speed Gust Speed Precip Events Conditions
12:20 AM -7.6 °F -13.0 °F 77% 30.45 in 5.6 mi Calm Calm - N/A Snow Light Snow
12:50 AM -5.8 °F -9.4 °F 84% 30.45 in 6.2 mi West 1.2 mph - N/A Snow Light Snow
1:00 AM -5 °F -9 °F 76% 30.51 in 6 mi West 2.2 mph - - Snow Light Snow
1:20 AM -4.0 °F -7.6 °F 85% 30.45 in 5.0 mi Calm Calm - N/A Snow Light Snow
1:50 AM -4.0 °F -7.6 °F 85% 30.45 in 3.1 mi WNW 1.2 mph - N/A Snow Light Snow
2:20 AM -4.0 °F -7.6 °F 85% 30.45 in 3.7 mi Variable 1.2 mph - N/A Snow Light Snow
2:50 AM -4.0 °F -7.6 °F 85% 30.45 in 5.0 mi NW 2.3 mph - N/A Snow Light Snow
3:20 AM -4.0 °F -9.4 °F 78% 30.45 in 5.6 mi Calm Calm - N/A Snow Light Snow
3:50 AM -5.8 °F -9.4 °F 84% 30.45 in 4.3 mi Calm Calm - N/A Snow Light Snow
4:00 AM -5 °F -9 °F 74% 30.52 in 4 mi Calm Calm - - Snow Light Snow
4:20 AM -5.8 °F -9.4 °F 84% 30.45 in 4.3 mi Calm Calm - N/A Snow Light Snow
4:50 AM -5.8 °F -9.4 °F 84% 30.45 in 5.6 mi Calm Calm - N/A Snow Light Snow
5:20 AM -5.8 °F -11.2 °F 77% 30.45 in 6.2 mi Calm Calm - N/A Snow Light Snow
5:50 AM -7.6 °F -11.2 °F 84% 30.45 in 6.2 mi Calm Calm - N/A Snow Light Snow
6:20 AM -9.4 °F -13.0 °F 84% 30.45 in 6.2 mi Calm Calm - N/A Snow Light Snow
6:50 AM -9.4 °F -13.0 °F 84% 30.45 in 6.2 mi Calm Calm - N/A Snow Light Snow
7:00 AM -9 °F -14 °F 70% 30.53 in 7 mi Calm Calm - - Snow Light Snow
7:20 AM -9.4 °F -13.0 °F 84% 30.45 in 6.2 mi Calm Calm - N/A Snow Light Snow Showers
7:50 AM -9.4 °F -13.0 °F 84% 30.45 in 6.2 mi Calm Calm - N/A Snow Light Snow Showers
8:20 AM -9.4 °F -14.8 °F 77% 30.45 in 6.2 mi Calm Calm - N/A Snow Light Snow Showers
8:50 AM -13.0 °F -18.4 °F 77% 30.48 in 6.2 mi Calm Calm - N/A Snow Light Snow Showers
9:20 AM -14.8 °F -18.4 °F 84% 30.48 in 6.2 mi Calm Calm - N/A   Unknown
9:50 AM -16.6 °F -22.0 °F 76% 30.48 in 6.2 mi Calm Calm - N/A   Unknown
10:00 AM -16 °F -21 °F 65% 30.56 in 25 mi Calm Calm - -   Clear
10:20 AM -14.8 °F -20.2 °F 77% 30.48 in 6.2 mi Calm Calm - N/A   Partly Cloudy
10:50 AM -16.6 °F -22.0 °F 76% 30.48 in 6.2 mi Calm Calm - N/A   Partly Cloudy
11:20 AM -14.8 °F -20.2 °F 77% 30.48 in 6.2 mi Calm Calm - N/A   Unknown
11:50 AM -13.0 °F -18.4 °F 77% 30.48 in 6.2 mi Calm Calm - N/A   Unknown
12:20 PM -16.6 °F -22.0 °F 76% 30.48 in 6.2 mi Calm Calm - N/A   Unknown
12:50 PM -18.4 °F -22.0 °F 84% 30.48 in 6.2 mi Calm Calm - N/A   Overcast
1:00 PM -18 °F -23 °F 67% 30.57 in 1 mi Calm Calm - - Snow Light Snow
1:20 PM - 32.0 °F N/A% 30.48 in 1.6 mi Calm Calm - N/A   Unknown
1:50 PM - 32.0 °F N/A% 30.48 in 0.9 mi Calm Calm - N/A   Unknown
2:20 PM -18.4 °F -23.8 °F 76% 30.51 in 6.2 mi Calm Calm - N/A Snow Light Snow
2:50 PM -18.4 °F -23.8 °F 76% 30.51 in 6.2 mi Calm Calm - N/A Snow Light Snow
3:20 PM - 32.0 °F N/A% 30.51 in 1.2 mi Calm Calm - N/A   Unknown
3:50 PM - 32.0 °F N/A% 30.51 in 5.0 mi Calm Calm - N/A   Unknown
4:00 PM -18 °F -23 °F 68% 30.58 in 12 mi Calm Calm - - Snow Light Snow
4:20 PM -18.4 °F -22.0 °F 84% 30.51 in 6.2 mi Calm Calm - N/A Snow Light Snow Showers
4:50 PM -22.0 °F -27.4 °F 76% 30.51 in 6.2 mi Calm Calm - N/A   Unknown
5:20 PM -18.4 °F -23.8 °F 76% 30.51 in 6.2 mi Calm Calm - N/A   Unknown
5:50 PM -22.0 °F -27.4 °F 76% 30.51 in 6.2 mi Calm Calm - N/A Snow Light Snow
6:20 PM - 32.0 °F N/A% 30.51 in 6.2 mi Calm Calm - N/A   Unknown
6:50 PM -22.0 °F -27.4 °F 76% 30.51 in 6.2 mi Calm Calm - N/A   Mostly Cloudy
7:00 PM -22 °F -28 °F 62% 30.61 in 31 mi Calm Calm - - Snow Snow
7:20 PM -23.8 °F -29.2 °F 76% 30.51 in 6.2 mi Calm Calm - N/A   Unknown
7:50 PM -25.6 °F -31.0 °F 76% 30.54 in 6.2 mi Calm Calm - N/A   Unknown
8:20 PM -23.8 °F -29.2 °F 76% 30.54 in 6.2 mi Calm Calm - N/A   Unknown
8:50 PM -25.6 °F -31.0 °F 76% 30.54 in 6.2 mi Calm Calm - N/A   Unknown
9:20 PM -25.6 °F -31.0 °F 76% 30.54 in 6.2 mi Calm Calm - N/A   Unknown
9:50 PM -25.6 °F -31.0 °F 76% 30.54 in 6.2 mi Calm Calm - N/A   Unknown
10:00 PM -27 °F -34 °F 55% 30.63 in 31 mi Calm Calm - -  
10:20 PM -27.4 °F -32.8 °F 75% 30.54 in 6.2 mi Calm Calm - N/A   Unknown
10:50 PM -27.4 °F -32.8 °F 75% 30.54 in 6.2 mi Calm Calm - N/A   Unknown
11:20 PM -27.4 °F -34.6 °F 69% 30.54 in 6.2 mi Calm Calm - N/A   Unknown
11:50 PM -27.4 °F -32.8 °F 75% 30.54 in 6.2 mi Calm Calm - N/A   Unknown